Tracking 29495 objects as of 7-Sep-2024
HD Live streaming from Space Station
objects crossing your sky now

FENGYUN 1C DEB

Track FENGYUN 1C DEB now!
10-day predictions


NORAD ID: 31660
Int'l Code: 1999-025CBS
Perigee: 740.6 km
Apogee: 895.6 km
Inclination: 98.5 °
Period: 101.1 minutes
Semi major axis: 7189 km
RCS: 0.0107 m2 (small)
Launch date: May 10, 1999
Source: People's Republic of China (PRC)
Launch site: Taiyaun Space Center, China (TSC)

Note: This is SATELLITE DEBRIS
Your satellite tracking list
Your tracking list is empty




NASA's NSSDC Master Catalog

Two Line Element Set (TLE):
1 31660U 99025CBS 24250.21841399  .00005964  00000-0  24483-2 0  9998
2 31660  98.5074 258.9459 0107835  95.1006 266.2492 14.24266984 13245
Source of the keplerian elements: AFSPC